This is the latest recevied weather packets stored in our database for station/object KM5VY. If no packets are shown the sender has not sent any weather packets the latest 10 day(s).
| Time | Temp. | Humidity | Pressure | Rain* | Wind** | Luminosity | Snow |
|---|---|---|---|---|---|---|---|
| 1777795976 | 1.11° C | 64% | 1023.4 hPa | 0 mm | - | - | - |
| 1777795375 | 1.11° C | 63% | 1023.7 hPa | 0 mm | - | - | - |
| 1777794774 | 1.11° C | 63% | 1023.7 hPa | 0 mm | - | - | - |
| 1777794174 | 1.11° C | 63% | 1023.7 hPa | 0 mm | - | - | - |
| 1777793572 | 1.11° C | 62% | 1023.7 hPa | 0 mm | - | - | - |
| 1777792971 | 1.67° C | 61% | 1023.7 hPa | 0 mm | - | - | - |
| 1777792370 | 1.67° C | 61% | 1024 hPa | 0 mm | - | - | - |
| 1777791770 | 1.67° C | 60% | 1024 hPa | 0 mm | - | - | - |
| 1777791169 | 2.22° C | 61% | 1024 hPa | 0 mm | - | - | - |
| 1777790568 | 2.22° C | 60% | 1024 hPa | 0 mm | - | - | - |
| 1777789366 | 2.22° C | 59% | 1023.7 hPa | 0 mm | - | - | - |
| 1777785159 | 3.89° C | 56% | 1023.7 hPa | 0 mm | - | - | - |
| 1777782154 | 5.56° C | 54% | 1023.4 hPa | 0 mm | - | - | - |
| 1777781553 | 6.11° C | 53% | 1023.7 hPa | 0 mm | - | - | - |
| 1777780951 | 6.11° C | 52% | 1023 hPa | 0 mm | - | - | - |
| 1777780351 | 6.67° C | 52% | 1023.4 hPa | 0 mm | - | - | - |
| 1777779751 | 6.67° C | 52% | 1023 hPa | 0 mm | - | - | - |
| 1777779149 | 7.22° C | 51% | 1023 hPa | 0 mm | - | - | - |
| 1777778548 | 7.78° C | 51% | 1023 hPa | 0 mm | - | - | - |
| 1777777946 | 7.78° C | 50% | 1022.7 hPa | 0 mm | - | - | - |
| 1777777346 | 8.33° C | 49% | 1022.7 hPa | 0 mm | - | - | - |
| 1777776745 | 8.33° C | 48% | 1022.3 hPa | 0 mm | - | - | - |
| 1777776144 | 8.89° C | 47% | 1022.3 hPa | 0 mm | - | - | - |
| 1777775543 | 9.44° C | 47% | 1022.3 hPa | 0 mm | - | - | - |
| 1777774942 | 10° C | 46% | 1022 hPa | 0 mm | - | - | - |
* Rain latest hour (hover to see other rain measurements)
** Current wind speed in m/s (hover to see current wind gust speed)